Other Public Products
Issued by NWS Charleston, SC

Current Version | Previous Version | Graphics & Text | Print | Product List | Glossary On
Versions: 1 2 3 4 5 6 7 8 9 10 11 12 13 14 15 16 17 18 19 20 21 22 23 24 25 26 27 28 29 30 31 32 33 34 35 36 37 38 39 40 41 42 43 44 45 46 47 48 49 50
000 FPUS82 KCHS 250627 OPUCHS TEST...KCHS/KSAV Gateway Observations...TEST National Weather Service Charleston SC 200 AM EDT TUE JUL 25 2017 NOTE: "fair" indicates few or no clouds below 12,000 feet with no significant weather and/or obstructions to visibility. SCZ050-WAZ558-NCZ071-TXZ119-213-PAZ071-DCZ001-FLZ074-172-MI076- NYZ176-178-MAZ016-IL014-TNZ027-NJZ106-GAZ044-MD014-250700- ...Gateway Observations for Charleston International... CITY SKY/WX TMP DP RH WIND PRES REMARKS Chas Airport CLOUDY 77 74 90 SW7 30.00S 6HR MIN TEMP: 73; 6HR MAX TEMP: 77; 6HR PCP: 1.51; Seattle CLEAR 68 50 52 N8 29.98R 6HR MIN TEMP: 67; 6HR MAX TEMP: 82; Charlotte MOCLDY 77 73 87 SW3 30.02R 6HR MIN TEMP: 77; 6HR MAX TEMP: 86; Dallas DFW CLEAR 81 74 79 SE8 29.99R 6HR MIN TEMP: 80; 6HR MAX TEMP: 90; Dallas Love CLEAR 81 73 76 SE10 30.00R 6HR MIN TEMP: 81; 6HR MAX TEMP: 90; Philladelphia CLOUDY 68 65 90 NE9 29.95R 6HR MIN TEMP: 68; 6HR MAX TEMP: 85; 6HR PCP: 1.10; Wash National CLOUDY 79 65 62 N13 29.95R 6HR MIN TEMP: 79; 6HR MAX TEMP: 86; 6HR PCP: TRACE; Baltimore CLOUDY 72 71 97 NW6 29.94R 6HR MIN TEMP: 72; 6HR MAX TEMP: 81; 6HR PCP: 0.02; Miami PTCLDY 84 77 79 E3 30.10F HX 94 6HR MIN TEMP: 83; 6HR MAX TEMP: 87; Detroit PTCLDY 60 53 77 N5 30.15R 6HR MIN TEMP: 60; 6HR MAX TEMP: 72; Newark CLOUDY 65 58 78 NE8 29.98R 6HR MIN TEMP: 65; 6HR MAX TEMP: 69; 6HR PCP: TRACE; Laguardia CLOUDY 64 59 83 E12 29.97R 6HR MIN TEMP: 64; 6HR MAX TEMP: 67; 6HR PCP: TRACE; J F K CLOUDY 64 61 90 E5 29.99R 6HR MIN TEMP: 64; 6HR MAX TEMP: 67; 6HR PCP: 0.05; Boston Logan CLOUDY 58 57 97 N13G18 29.99R 6HR MIN TEMP: 58; 6HR MAX TEMP: 59; 6HR PCP: 0.03; Ft. Lauderdale PTCLDY 84 77 79 SE3 30.09F HX 94 6HR MIN TEMP: 84; 6HR MAX TEMP: 86; Chicago O`Hare PTCLDY 66 59 78 NE5 30.13R 6HR MIN TEMP: 66; 6HR MAX TEMP: 70; Chicago Midway PTCLDY 69 61 75 NE8 30.13R 6HR MIN TEMP: 68; 6HR MAX TEMP: 71; Houston Bush CLOUDY 82 74 76 S5 30.04R 6HR MIN TEMP: 82; 6HR MAX TEMP: 92; Houston Hobby MOCLDY 81 74 79 S3 30.04R 6HR MIN TEMP: 81; 6HR MAX TEMP: 90; Nashville PTCLDY 79 74 84 CALM 30.03R 6HR MIN TEMP: 78; 6HR MAX TEMP: 89; Atlanta PTCLDY 73 71 93 W6 30.05S 6HR MIN TEMP: 73; 6HR MAX TEMP: 76; $$ GAZ044-118-TXZ119-213-NCZ071-DCZ001-MDZ014-506-PAZ021-071-NJZ106- NYZ176-178-MAZ106-OHZ011-021-055-MIZ076-KYZ091-ILZ014-INZ047- MNZ060-ONZ431-250700- ...Gateway Observations for Savannah International... CITY SKY/WX TMP DP RH WIND PRES REMARKS Savannah Arpt CLOUDY N/A N/A N/A SW5 30.02F 6HR PCP: 0.08; Atlanta PTCLDY 73 71 93 W6 30.05S 6HR MIN TEMP: 73; 6HR MAX TEMP: 76; Charlotte MOCLDY 77 73 87 SW3 30.02R 6HR MIN TEMP: 77; 6HR MAX TEMP: 86; Dallas DFW CLEAR 81 74 79 SE8 29.99R 6HR MIN TEMP: 80; 6HR MAX TEMP: 90; Houston Bush CLOUDY 82 74 76 S5 30.04R 6HR MIN TEMP: 82; 6HR MAX TEMP: 92; Wash National CLOUDY 79 65 62 N13 29.95R 6HR MIN TEMP: 79; 6HR MAX TEMP: 86; 6HR PCP: TRACE; Wash Dulles CLOUDY 75 61 61 N10 29.96R 6HR MIN TEMP: 75; 6HR MAX TEMP: 83; Baltimore CLOUDY 72 71 97 NW6 29.94R 6HR MIN TEMP: 72; 6HR MAX TEMP: 81; 6HR PCP: 0.02; Philadelphia CLOUDY 68 65 90 NE9 29.95R 6HR MIN TEMP: 68; 6HR MAX TEMP: 85; 6HR PCP: 1.10; Newark CLOUDY 65 58 78 NE8 29.98R 6HR MIN TEMP: 65; 6HR MAX TEMP: 69; 6HR PCP: TRACE; Laguardia CLOUDY 64 59 83 E12 29.97R 6HR MIN TEMP: 64; 6HR MAX TEMP: 67; 6HR PCP: TRACE; J F K CLOUDY 64 61 90 E5 29.99R 6HR MIN TEMP: 64; 6HR MAX TEMP: 67; 6HR PCP: 0.05; Boston CLOUDY 58 57 97 N13G18 29.99R 6HR MIN TEMP: 58; 6HR MAX TEMP: 59; 6HR PCP: 0.03; Pittsburg CLOUDY 65 55 70 NW12 30.08R 6HR MIN TEMP: 64; 6HR MAX TEMP: 71; Akron MOCLDY 64 53 67 N5 30.10R 6HR MIN TEMP: 61; 6HR MAX TEMP: 68; Cleveland CLOUDY 68 55 63 N15G23 30.11S 6HR MIN TEMP: 68; 6HR MAX TEMP: 71; Cincinnati CLEAR 69 61 75 NE10 30.11R 6HR MIN TEMP: 69; 6HR MAX TEMP: 80; Columbus CLEAR 61 58 92 NE3 30.13R Detroit PTCLDY 60 53 77 N5 30.15R 6HR MIN TEMP: 60; 6HR MAX TEMP: 72; Chicago O`Hare PTCLDY 66 59 78 NE5 30.13R 6HR MIN TEMP: 66; 6HR MAX TEMP: 70; Minneapolis CLOUDY 68 60 75 SE13 30.03F 6HR MIN TEMP: 68; 6HR MAX TEMP: 76; Indianapolis CLEAR 68 58 70 E8 30.11R 6HR MIN TEMP: 68; 6HR MAX TEMP: 79; Toronto Canada CLOUDY 63 55 77 N15 30.04R $$

USA.gov is the U.S. government's official web portal to all federal, state and local government web resources and services.